Flag for Norway Weather past 2 weeks in Longyearbyen, Svalbard, Norway

Now
37 °F

Partly sunny.


Feels Like: 37 °F
Forecast: 33 / 44 °F
Wind: 1 mph from North

Location: Svalbard Lufthavn

Current Time: Sep 5, 2015 at 6:20:22 PM

Latest Report: Sep 5, 2015 at 5:50 PM


Visibility: N/A

Pressure: 29.83 "Hg

Humidity: 70%

Dew point: 28 °F

Location of LongyearbyenLocation

Historic Weather in Longyearbyen — Graph

°F

Longyearbyen temperature yesterday

Maximum temperature yesterday: 37 °F (at 6:50 AM)
Minimum temperature yesterday: 34 °F (at 1:50 AM)
Average temperature yesterday: 37 °F

Past Weeks' High & Low Weather Summary

 TemperatureHumidityPressure
High48 °F (Aug 22, 2:50 PM)100% (Aug 24, 4:50 AM)30.33 "Hg (Aug 24, 4:50 AM)
Low30 °F (Sep 2, 12:50 AM)56% (Sep 1, 5:50 PM)29.68 "Hg (Sep 4, 8:50 PM)
Average39 °F77%29.97 "Hg
* Reported Aug 21 4:50 PM — Sep 5 4:50 PM, Longyearbyen, Weather by CustomWeather, © 2015

Note: Actual official high and low records may vary slightly from our data, if they occured in-between our weather recording intervals... More about our weather records

Advertising

Longyearbyen weather history for previous 24 hours

 ConditionsComfort  
Time TempWeatherWind HumidityBarometerVisibility
4:50 PM
Sat, Sep 5
37 °FPartly sunny.3 mph65%29.83 "HgN/A
3:50 PM37 °FPartly sunny.3 mph65%29.83 "HgN/A
2:50 PM37 °FScattered clouds.6 mph65%29.83 "HgN/A
1:50 PM37 °FPassing clouds.2 mph65%29.80 "HgN/A
12:50 PM36 °FPassing clouds.3 mph70%29.80 "HgN/A
11:50 AM36 °FPassing clouds.2 mph70%29.80 "HgN/A
10:50 AM36 °FPassing clouds.5 mph75%29.77 "HgN/A
10:20 AM36 °FPassing clouds.3 mph75%29.77 "HgN/A
8:50 AM34 °FPartly sunny.6 mph81%29.77 "HgN/A
7:50 AM34 °FPartly sunny.3 mph75%29.74 "HgN/A
6:50 AM34 °FPartly sunny.2 mph75%29.74 "HgN/A
5:50 AM34 °FPartly sunny.2 mph75%29.74 "HgN/A
5:02 AM34 °FPassing clouds.1 mph75%29.74 "HgN/A
3:50 AM34 °FPassing clouds.2 mph70%29.71 "HgN/A
2:50 AM34 °FPassing clouds.1 mph75%29.71 "HgN/A
1:50 AM36 °FPassing clouds.7 mph70%29.71 "HgN/A
12:50 AM36 °FPassing clouds.1 mph70%29.71 "HgN/A
12:00 AM36 °FPartly cloudy.8 mph70%29.71 "HgN/A
10:50 PM
Fri, Sep 4
36 °FPassing clouds.1 mph70%29.71 "HgN/A
9:55 PM37 °FBroken clouds.2 mph65%29.71 "HgN/A
8:50 PM37 °FBroken clouds.6 mph70%29.68 "HgN/A
7:50 PM37 °FBroken clouds.10 mph70%29.71 "HgN/A
6:50 PM37 °FPartly sunny.9 mph65%29.71 "HgN/A
Weather by CustomWeather, © 2015

See weather overviewHow to use our weather pages